GW5836 Weather Reports


time (UTC)temp
C
wind
direction
speed
KPH
gust
KPH
rain 1hr
cm
rain 24hr
cm
rain mn
cm
humidity
%
barometer
mb
20260510120232 14 46 0.0 0.0 0.00 0.00 0.00 97 1014.4
20260510115727 13 38 0.0 0.0 0.00 0.00 0.00 97 1014.3
20260510115226 13 32 0.0 0.0 0.00 0.00 0.00 97 1014.2
20260510114720 13 36 0.0 0.0 0.00 0.00 0.00 97 1014.3
20260510114218 13 36 0.0 0.0 0.00 0.00 0.00 98 1014.3
20260510113713 12 36 0.0 0.0 0.00 0.00 0.00 98 1014.2
20260510113210 12 34 0.0 0.0 0.00 0.00 0.00 98 1014.0
20260510112706 12 34 0.0 0.0 0.00 0.00 0.00 98 1014.0
20260510112204 11 34 0.0 0.0 0.00 0.00 0.00 97 1013.9
20260510111659 11 67 0.0 0.0 0.00 0.00 0.00 98 1013.8
20260510111156 11 67 0.0 0.0 0.00 0.00 0.00 97 1013.8
20260510110650 10 27 0.0 0.0 0.00 0.00 0.00 97 1013.8
20260510110149 10 19 0.0 0.0 0.00 0.00 0.00 97 1013.8
20260510105638 10 20 0.0 0.0 0.00 0.00 0.00 97 1013.5
20260510105138 10 32 0.0 0.0 0.00 0.00 0.00 97 1013.3
20260510104635 10 32 0.0 0.0 0.00 0.00 0.00 97 1013.2
20260510104132 10 32 0.0 0.0 0.00 0.00 0.00 97 1013.1
20260510103628 9 50 0.0 0.0 0.00 0.00 0.00 97 1013.0
20260510103124 9 51 0.0 0.0 0.00 0.00 0.00 97 1012.9
20260510102620 9 51 0.0 0.0 0.00 0.00 0.00 97 1012.9
20260510102116 9 51 0.0 0.0 0.00 0.00 0.00 97 1012.8
20260510101614 9 51 0.0 0.0 0.00 0.00 0.00 97 1012.8
20260510101112 9 57 0.0 0.0 0.00 0.00 0.00 97 1012.8
20260510100608 9 57 0.0 0.0 0.00 0.00 0.00 97 1012.7
20260510100106 9 60 0.0 0.0 0.00 0.00 0.00 97 1012.7
20260510095601 10 59 0.0 0.0 0.00 0.00 0.00 97 1012.8
20260510095056 10 59 0.0 0.0 0.00 0.00 0.00 97 1012.8
20260510094555 10 38 0.0 0.0 0.00 0.00 0.00 97 1012.7
20260510094051 10 39 0.0 0.0 0.00 0.00 0.00 97 1012.9
20260510093547 10 38 0.0 0.0 0.00 0.00 0.00 97 1012.9
20260510093044 10 83 0.0 0.0 0.00 0.00 0.00 97 1012.9
20260510092541 10 83 0.0 0.0 0.00 0.00 0.00 97 1012.9
20260510092040 10 84 0.0 0.0 0.00 0.00 0.00 97 1012.7
20260510091538 10 88 0.0 0.0 0.00 0.00 0.00 97 1012.8
20260510091034 10 93 0.0 0.0 0.00 0.00 0.00 97 1012.5
20260510090531 10 79 0.0 0.0 0.00 0.00 0.00 97 1012.6
20260510090027 10 59 0.0 0.0 0.00 0.00 0.00 97 1012.4
20260510085526 10 7 0.0 0.0 0.00 0.00 0.00 97 1012.3
20260510085022 10 26 0.0 0.0 0.00 0.00 0.00 97 1012.2
20260510084520 10 26 0.0 0.0 0.00 0.00 0.00 97 1012.5
20260510084016 10 26 0.0 0.0 0.00 0.00 0.00 97 1012.4
20260510083513 10 26 0.0 0.0 0.00 0.00 0.00 96 1012.5
20260510083009 10 26 0.0 0.0 0.00 0.00 0.00 97 1012.4
20260510082506 10 26 0.0 0.0 0.00 0.00 0.00 96 1012.3
20260510082001 10 26 0.0 0.0 0.00 0.00 0.00 96 1012.2
20260510081456 10 26 0.0 0.0 0.00 0.00 0.00 96 1012.3
20260510080953 10 26 0.0 0.0 0.00 0.00 0.00 96 1012.1
20260510080451 10 26 0.0 0.0 0.00 0.00 0.00 96 1012.1
20260510075949 10 26 0.0 0.0 0.00 0.00 0.00 96 1011.9
20260510075446 10 26 0.0 0.0 0.00 0.00 0.00 96 1011.8
20260510074943 10 26 0.0 0.0 0.00 0.00 0.00 96 1011.8
20260510074440 10 26 0.0 0.0 0.00 0.00 0.00 96 1011.6
20260510073936 10 26 0.0 0.0 0.00 0.00 0.00 96 1011.6
20260510073432 10 26 0.0 0.0 0.00 0.00 0.00 96 1011.6
20260510072928 10 26 0.0 0.0 0.00 0.00 0.00 96 1011.5
20260510072425 10 26 0.0 0.0 0.00 0.00 0.00 96 1011.6
20260510071920 10 26 0.0 0.0 0.00 0.00 0.00 96 1011.5
20260510071417 10 26 0.0 0.0 0.00 0.00 0.00 96 1011.6
20260510070916 10 26 0.0 0.0 0.00 0.00 0.00 96 1011.4
20260510070413 10 26 0.0 0.0 0.00 0.00 0.00 96 1011.7
20260510065908 10 27 0.0 0.0 0.00 0.00 0.00 96 1011.4
20260510065404 10 27 0.0 0.0 0.00 0.00 0.00 96 1011.3
20260510064901 10 27 0.0 0.0 0.00 0.00 0.00 96 1011.4
20260510064359 10 27 0.0 0.0 0.00 0.00 0.00 96 1011.5
20260510063855 10 27 0.0 0.0 0.00 0.00 0.00 96 1011.2
20260510063351 10 26 0.0 0.0 0.00 0.00 0.00 96 1011.3
20260510062848 10 26 0.0 0.0 0.00 0.00 0.00 96 1011.3
20260510062344 10 27 0.0 0.0 0.00 0.00 0.00 96 1011.5
20260510061839 11 27 0.0 0.0 0.00 0.00 0.00 96 1011.3
20260510061336 11 27 0.0 0.0 0.00 0.00 0.00 95 1011.2
20260510060832 11 17 0.0 0.0 0.00 0.00 0.00 95 1011.1
20260510060330 11 13 0.0 0.0 0.00 0.00 0.00 95 1011.2
20260510055827 11 13 0.0 0.0 0.00 0.00 0.00 95 1011.4
20260510055325 11 13 0.0 0.0 0.00 0.00 0.00 95 1011.4
20260510054824 11 13 0.0 0.0 0.00 0.00 0.00 95 1011.4
20260510054320 11 14 0.0 0.0 0.00 0.00 0.00 95 1011.6
20260510053815 11 14 0.0 0.0 0.00 0.00 0.00 95 1011.4
20260510053311 11 14 0.0 0.0 0.00 0.00 0.00 95 1011.4
20260510052808 11 14 0.0 0.0 0.00 0.00 0.00 95 1011.5
20260510052306 11 14 0.0 0.0 0.00 0.00 0.00 95 1011.5
20260510051759 11 14 0.0 0.0 0.00 0.00 0.00 95 1011.4
20260510051256 11 14 0.0 0.0 0.00 0.00 0.00 95 1011.5
20260510050753 11 14 0.0 0.0 0.00 0.00 0.00 95 1011.4
20260510050250 11 14 0.0 0.0 0.00 0.00 0.00 95 1011.4
20260510045747 11 14 0.0 0.0 0.00 0.13 0.13 94 1011.4
20260510045244 12 1 0.0 0.0 0.00 0.13 0.13 95 1011.5
20260510044741 12 1 0.0 0.0 0.00 0.13 0.13 94 1011.6
20260510044238 12 1 0.0 0.0 0.00 0.13 0.13 94 1011.6
20260510043733 12 1 0.0 0.0 0.00 0.13 0.13 94 1011.5
20260510043231 12 1 0.0 0.0 0.00 0.13 0.13 94 1011.6
20260510042728 12 1 0.0 0.0 0.00 0.13 0.13 94 1011.7
20260510042223 12 1 0.0 0.0 0.00 0.13 0.13 94 1011.6
20260510041721 12 1 0.0 0.0 0.00 0.13 0.13 94 1011.5
20260510041218 12 1 0.0 0.0 0.00 0.13 0.13 94 1011.4
20260510040714 12 1 0.0 0.0 0.00 0.13 0.13 94 1011.5
20260510040211 12 1 0.0 0.0 0.00 0.13 0.13 93 1011.5
20260510035707 12 1 0.0 0.0 0.00 0.13 0.13 93 1011.5
20260510035203 12 1 0.0 0.0 0.00 0.13 0.13 93 1011.5
20260510034659 12 1 0.0 0.0 0.00 0.13 0.13 93 1011.5
20260510034156 12 1 0.0 0.0 0.00 0.13 0.13 93 1011.4
20260510033653 12 1 0.0 0.0 0.00 0.13 0.13 93 1011.4
20260510033150 13 1 0.0 0.0 0.00 0.13 0.13 93 1011.5
20260510032647 13 1 0.0 0.0 0.00 0.13 0.13 93 1011.5
20260510032142 13 1 0.0 0.0 0.00 0.13 0.13 92 1011.2
20260510031637 13 1 0.0 0.0 0.00 0.13 0.13 92 1011.3
20260510031134 13 1 0.0 0.0 0.00 0.13 0.13 92 1011.5
20260510030628 13 358 0.0 0.0 0.00 0.13 0.13 91 1011.3
20260510030126 13 358 0.0 0.0 0.00 0.13 0.13 91 1011.3
20260510025623 13 358 0.0 0.0 0.00 0.13 0.13 91 1011.2
20260510025121 13 358 0.0 0.0 0.00 0.13 0.13 91 1011.2
20260510024617 13 358 0.0 0.0 0.00 0.13 0.13 90 1011.0
20260510024114 13 356 0.0 0.0 0.00 0.13 0.13 90 1011.3
20260510023610 13 356 0.0 0.0 0.00 0.13 0.13 90 1011.3
20260510023108 13 356 0.0 0.0 0.00 0.13 0.13 89 1011.3
20260510022607 14 356 0.0 0.0 0.00 0.13 0.13 89 1011.0
20260510022102 14 0 0.0 0.0 0.00 0.13 0.13 88 1011.2
20260510021558 14 0 0.0 0.0 0.00 0.13 0.13 88 1011.4
20260510021055 14 0 0.0 0.0 0.00 0.13 0.13 87 1011.3
20260510020550 15 350 0.0 1.6 0.00 0.13 0.13 87 1011.3
20260510020046 15 6 0.0 0.0 0.00 0.13 0.13 85 1011.3
20260510015542 15 6 0.0 0.0 0.00 0.13 0.13 85 1011.3
20260510015038 15 356 0.0 0.0 0.00 0.13 0.13 84 1011.0
20260510014534 15 9 0.0 1.6 0.00 0.13 0.13 84 1011.1
20260510014031 15 15 0.0 1.6 0.00 0.13 0.13 84 1011.1
20260510013520 15 318 1.6 3.2 0.00 0.13 0.13 84 1010.8
20260510013017 15 334 1.6 1.6 0.00 0.13 0.13 85 1010.8
20260510012516 15 337 0.0 1.6 0.00 0.13 0.13 86 1010.9
20260510012012 15 84 0.0 0.0 0.00 0.13 0.13 87 1010.7
20260510011507 15 49 0.0 0.0 0.00 0.13 0.13 86 1010.5
20260510011003 15 49 0.0 0.0 0.00 0.13 0.13 85 1010.5
20260510010500 15 87 0.0 0.0 0.00 0.13 0.13 85 1010.6
20260510005957 15 87 0.0 0.0 0.00 0.13 0.13 84 1010.6
20260510005453 15 89 0.0 0.0 0.00 0.13 0.13 83 1010.4
20260510004950 15 95 0.0 0.0 0.00 0.13 0.13 83 1010.5
20260510004447 16 90 0.0 0.0 0.00 0.13 0.13 82 1010.4
20260510003945 16 36 0.0 0.0 0.00 0.13 0.13 82 1010.2
20260510003442 16 37 0.0 0.0 0.00 0.13 0.13 81 1010.4
20260510002942 16 36 0.0 0.0 0.00 0.13 0.13 80 1010.1
20260510002438 16 19 0.0 0.0 0.00 0.13 0.13 78 1010.3
20260510001935 17 19 0.0 0.0 0.00 0.13 0.13 77 1010.3
20260510001433 17 19 0.0 0.0 0.00 0.13 0.13 76 1010.2
20260510000930 18 19 0.0 0.0 0.00 0.13 0.13 75 1010.1
20260510000426 18 19 0.0 0.0 0.00 0.13 0.13 74 1010.0
20260509235923 18 19 0.0 0.0 0.00 0.13 0.13 73 1010.0
20260509235420 18 16 0.0 0.0 0.00 0.13 0.13 73 1010.0
20260509234916 18 53 0.0 0.0 0.00 0.13 0.13 72 1009.8
20260509234413 18 57 0.0 0.0 0.00 0.13 0.13 71 1009.8
20260509233911 19 117 1.6 1.6 0.00 0.13 0.13 70 1009.9
20260509233403 19 188 1.6 1.6 0.00 0.13 0.13 69 1009.9
20260509232858 19 100 0.0 0.0 0.00 0.13 0.13 69 1009.8
20260509232357 20 170 0.0 1.6 0.00 0.13 0.13 68 1009.8
20260509231852 20 174 3.2 4.8 0.00 0.13 0.13 66 1009.7
20260509231349 20 112 0.0 0.0 0.00 0.13 0.13 66 1009.5
20260509230847 20 72 0.0 0.0 0.00 0.13 0.13 65 1009.6
20260509230344 20 86 0.0 0.0 0.00 0.13 0.13 65 1009.5
20260509225839 20 58 0.0 0.0 0.00 0.13 0.13 65 1009.6
20260509225337 20 43 0.0 0.0 0.00 0.13 0.13 65 1009.8
20260509224832 20 135 1.6 3.2 0.00 0.13 0.13 65 1009.5
20260509224328 20 149 1.6 1.6 0.00 0.13 0.13 64 1009.5
20260509223825 20 87 1.6 3.2 0.00 0.13 0.13 64 1009.8
20260509223322 20 162 1.6 1.6 0.00 0.13 0.13 65 1009.7
20260509222819 20 310 1.6 3.2 0.00 0.13 0.13 65 1009.6
20260509222315 20 57 0.0 0.0 0.00 0.13 0.13 66 1009.8
20260509221810 20 347 0.0 0.0 0.00 0.13 0.13 65 1009.6
20260509221308 20 85 1.6 1.6 0.00 0.13 0.13 65 1009.5
20260509220808 20 107 1.6 1.6 0.00 0.13 0.13 65 1009.8
20260509220304 20 92 1.6 1.6 0.00 0.13 0.13 66 1009.6
20260509215800 20 114 1.6 3.2 0.00 0.13 0.13 65 1009.6
20260509215256 20 92 4.8 6.4 0.00 0.13 0.13 64 1009.7
20260509214754 20 113 1.6 4.8 0.00 0.13 0.13 63 1009.8
20260509214250 21 142 3.2 4.8 0.00 0.13 0.13 63 1009.8
20260509213748 21 142 3.2 3.2 0.00 0.13 0.13 62 1009.8
20260509213243 21 309 1.6 3.2 0.00 0.13 0.13 62 1009.8
20260509212741 21 147 3.2 3.2 0.00 0.13 0.13 62 1009.7
20260509212238 21 179 0.0 1.6 0.00 0.13 0.13 65 1009.8
20260509211733 21 76 0.0 0.0 0.00 0.13 0.13 63 1009.7
20260509211230 21 83 1.6 3.2 0.00 0.13 0.13 63 1009.8
20260509210727 21 347 1.6 3.2 0.00 0.13 0.13 61 1009.6
20260509210225 21 148 1.6 1.6 0.00 0.13 0.13 62 1009.6
20260509205724 21 105 0.0 0.0 0.00 0.13 0.13 63 1009.6
20260509205224 21 333 1.6 1.6 0.00 0.13 0.13 63 1009.7
20260509204720 21 335 3.2 4.8 0.00 0.13 0.13 63 1009.5
20260509204217 20 352 3.2 4.8 0.00 0.13 0.13 64 1009.4
20260509203713 20 321 3.2 4.8 0.00 0.13 0.13 66 1009.5
20260509203211 21 338 1.6 3.2 0.00 0.13 0.13 65 1009.5
20260509202706 20 3 1.6 1.6 0.00 0.13 0.13 67 1009.5
20260509202201 20 160 0.0 1.6 0.00 0.13 0.13 70 1009.6
20260509201657 20 7 3.2 3.2 0.00 0.13 0.13 68 1009.8
20260509201154 20 48 1.6 3.2 0.00 0.13 0.13 68 1009.9
20260509200650 20 159 4.8 4.8 0.00 0.13 0.13 69 1010.0
20260509200145 20 126 1.6 1.6 0.00 0.13 0.13 69 1010.0
20260509195642 20 137 0.0 0.0 0.00 0.13 0.13 71 1010.1
20260509195137 20 23 1.6 3.2 0.00 0.13 0.13 70 1010.3
20260509194636 20 77 3.2 3.2 0.00 0.13 0.13 71 1010.3
20260509194134 20 312 3.2 4.8 0.00 0.13 0.13 71 1010.3
20260509193630 20 108 3.2 4.8 0.00 0.13 0.13 71 1010.3
20260509193125 18 318 0.0 0.0 0.00 0.13 0.13 72 1010.5
20260509192622 18 0 0.0 1.6 0.00 0.13 0.13 71 1010.6
20260509192117 18 311 1.6 1.6 0.00 0.13 0.13 72 1010.6
20260509191612 18 21 0.0 1.6 0.00 0.13 0.13 77 1010.5
20260509191109 18 14 1.6 1.6 0.00 0.13 0.13 79 1010.6
20260509190606 18 77 4.8 4.8 0.00 0.13 0.13 78 1010.6
20260509185600 18 28 0.0 0.0 0.00 0.13 0.13 84 1010.7
20260509185056 17 94 0.0 0.0 0.30 0.13 0.13 83 1010.7
20260509184555 17 38 0.0 0.0 0.61 0.13 0.13 80 1011.0
20260509184051 17 13 0.0 0.0 0.48 0.08 0.08 77 1011.2
20260509183546 18 26 0.0 0.0 0.18 0.03 0.03 73 1011.2
20260509183042 19 171 0.0 0.0 0.00 0.00 0.00 67 1011.2
20260509182539 20 195 0.0 1.6 0.00 0.00 0.00 61 1010.9
20260509182036 20 350 0.0 0.0 0.00 0.00 0.00 61 1010.9
20260509181534 20 91 0.0 0.0 0.00 0.00 0.00 63 1011.0
20260509181031 20 35 0.0 0.0 0.00 0.00 0.00 60 1011.3
20260509180526 20 324 0.0 1.6 0.00 0.00 0.00 58 1011.4
20260509180025 20 331 0.0 0.0 0.00 0.00 0.00 61 1011.3
20260509175519 20 187 1.6 1.6 0.00 0.00 0.00 61 1011.4
20260509175016 20 313 0.0 1.6 0.00 0.00 0.00 59 1011.3
20260509174513 20 346 0.0 1.6 0.00 0.00 0.00 57 1011.2
20260509174008 20 349 0.0 0.0 0.00 0.00 0.00 60 1011.3
20260509173503 20 105 0.0 1.6 0.00 0.00 0.00 58 1011.3
20260509172959 20 322 0.0 1.6 0.00 0.00 0.00 60 1011.3
20260509172457 20 216 0.0 1.6 0.00 0.00 0.00 61 1011.5
20260509171952 19 166 0.0 0.0 0.00 0.00 0.00 63 1011.6
20260509171448 18 339 1.6 3.2 0.00 0.00 0.00 62 1011.4
20260509170945 18 147 1.6 1.6 0.00 0.00 0.00 62 1011.7
20260509170440 18 38 0.0 0.0 0.00 0.00 0.00 63 1011.7
20260509165937 18 0 0.0 1.6 0.00 0.00 0.00 62 1011.7
20260509165436 19 19 0.0 0.0 0.00 0.00 0.00 61 1011.7
20260509164932 19 104 0.0 0.0 0.00 0.00 0.00 62 1011.6
20260509164428 19 14 0.0 0.0 0.00 0.00 0.00 61 1011.7
20260509163924 20 8 0.0 0.0 0.00 0.00 0.00 60 1011.6
20260509163422 20 4 0.0 0.0 0.00 0.00 0.00 59 1011.6
20260509162920 20 346 1.6 1.6 0.00 0.00 0.00 60 1011.5
20260509162419 21 235 1.6 1.6 0.00 0.00 0.00 57 1011.7
20260509161915 21 9 0.0 0.0 0.00 0.00 0.00 57 1011.6
20260509161411 20 16 0.0 1.6 0.00 0.00 0.00 60 1011.8
20260509160907 20 140 1.6 1.6 0.00 0.00 0.00 57 1011.5
20260509160408 20 346 0.0 0.0 0.00 0.00 0.00 59 1011.8
20260509155903 20 165 1.6 1.6 0.00 0.00 0.00 57 1011.9
20260509155400 20 190 0.0 1.6 0.00 0.00 0.00 60 1012.0
20260509154856 20 330 1.6 1.6 0.00 0.00 0.00 57 1011.9
20260509154353 21 289 1.6 1.6 0.00 0.00 0.00 55 1011.9
20260509153850 21 27 0.0 1.6 0.00 0.00 0.00 54 1012.0
20260509153347 21 126 1.6 1.6 0.00 0.00 0.00 58 1011.9
20260509152844 20 149 0.0 1.6 0.00 0.00 0.00 59 1012.1
20260509152339 20 48 0.0 0.0 0.00 0.00 0.00 58 1012.1
20260509151837 20 95 1.6 3.2 0.00 0.00 0.00 56 1012.2
20260509151333 19 347 0.0 0.0 0.00 0.00 0.00 62 1012.2
20260509150832 18 359 0.0 1.6 0.00 0.00 0.00 60 1012.4
20260509150329 18 8 0.0 0.0 0.00 0.00 0.00 59 1012.6
20260509145826 18 325 1.6 1.6 0.00 0.00 0.00 63 1012.5
20260509145321 18 78 0.0 0.0 0.00 0.00 0.00 63 1012.6
20260509144818 17 144 0.0 1.6 0.00 0.00 0.00 63 1012.8
20260509144315 17 322 1.6 1.6 0.00 0.00 0.00 61 1012.8
20260509143812 17 58 0.0 0.0 0.00 0.00 0.00 65 1012.8
20260509143309 17 329 0.0 0.0 0.00 0.00 0.00 64 1012.8
20260509142805 17 353 0.0 0.0 0.00 0.00 0.00 64 1012.7
20260509142301 17 350 0.0 0.0 0.00 0.00 0.00 62 1012.7
20260509141756 17 202 1.6 1.6 0.00 0.00 0.00 64 1012.7
20260509141254 17 319 0.0 0.0 0.00 0.00 0.00 64 1012.7
20260509140750 17 343 1.6 1.6 0.00 0.00 0.00 63 1012.7
20260509140248 17 70 0.0 0.0 0.00 0.00 0.00 63 1012.8
20260509135745 17 11 0.0 0.0 0.00 0.00 0.00 63 1012.7
20260509135243 17 276 1.6 1.6 0.00 0.00 0.00 64 1012.8
20260509134740 17 359 0.0 0.0 0.00 0.00 0.00 62 1012.7
20260509134237 16 19 0.0 0.0 0.00 0.00 0.00 66 1012.7
20260509133734 16 41 0.0 0.0 0.00 0.00 0.00 64 1012.8
20260509133231 16 72 0.0 0.0 0.00 0.00 0.00 64 1012.8
20260509132730 16 342 1.6 1.6 0.00 0.00 0.00 63 1012.7
20260509132228 16 320 0.0 0.0 0.00 0.00 0.00 64 1012.8
20260509131724 16 75 1.6 1.6 0.00 0.00 0.00 64 1012.6
20260509131221 16 325 0.0 0.0 0.00 0.00 0.00 63 1012.7
20260509130717 17 98 1.6 1.6 0.00 0.00 0.00 62 1012.8
20260509130213 17 322 0.0 0.0 0.00 0.00 0.00 63 1012.6
20260509125710 17 326 0.0 0.0 0.00 0.00 0.00 63 1012.3
20260509125206 17 153 0.0 1.6 0.00 0.00 0.00 64 1012.6
20260509124703 16 145 0.0 0.0 0.00 0.00 0.00 63 1012.5
20260509124159 16 351 1.6 3.2 0.00 0.00 0.00 64 1012.3
20260509123658 16 358 1.6 3.2 0.00 0.00 0.00 64 1012.5
20260509123154 15 117 1.6 1.6 0.00 0.00 0.00 66 1012.5
20260509122650 15 191 1.6 1.6 0.00 0.00 0.00 67 1012.5
20260509122147 15 250 1.6 1.6 0.00 0.00 0.00 66 1012.5
20260509121643 15 222 0.0 0.0 0.00 0.00 0.00 66 1012.4
20260509121142 15 129 0.0 1.6 0.00 0.00 0.00 66 1012.5
20260509120640 15 234 4.8 9.7 0.00 0.00 0.00 65 1012.6